• In Deutschland
  • Länderverzeichnis
  • Für 7 Tage
  • Wassertemperatur
  • Satellitenkarten
  • Wetterkarte
  • Widgets
  • user-avatar
    Anmelden

    Stündliche Wetter Bad Salzschlirf

    Heute, 14 Dezember, Donnerstag

    Zeit Temperatur Niederschläge Wind Luftdruck Luftfeuchtigkeit
    00:00 +2°C° 0,8 mm 7 m/S 715 mmHg 89%
    01:00 +2°C° 0,8 mm 7 m/S 714 mmHg 89%
    02:00 +2°C° 0,5 mm 6 m/S 714 mmHg 89%
    03:00 +2°C° 0,5 mm 5 m/S 714 mmHg 89%
    04:00 +2°C° 0,5 mm 5 m/S 714 mmHg 89%
    05:00 +1°C° 0,9 mm 6 m/S 714 mmHg 86%
    06:00 0°C° 0,9 mm 7 m/S 714 mmHg 83%
    07:00 0°C° 0,9 mm 8 m/S 715 mmHg 81%
    08:00 0°C° 0,1 mm 8 m/S 715 mmHg 79%
    09:00 -1°C° 0,1 mm 8 m/S 716 mmHg 77%
    10:00 -1°C° 0,1 mm 8 m/S 717 mmHg 76%
    11:00 -1°C° 0 mm 8 m/S 718 mmHg 76%
    12:00 0°C° 0 mm 7 m/S 718 mmHg 76%
    13:00 0°C° 0 mm 7 m/S 719 mmHg 77%
    14:00 +1°C° 0,4 mm 6 m/S 718 mmHg 80%
    15:00 +1°C° 0,4 mm 5 m/S 718 mmHg 83%
    16:00 +1°C° 0,4 mm 5 m/S 717 mmHg 85%
    17:00 0°C° 0,6 mm 4 m/S 717 mmHg 87%
    18:00 0°C° 0,6 mm 4 m/S 717 mmHg 89%
    19:00 0°C° 0,6 mm 4 m/S 716 mmHg 91%
    20:00 +1°C° 0,4 mm 3 m/S 716 mmHg 93%
    21:00 +1°C° 0,4 mm 3 m/S 716 mmHg 94%
    22:00 +1°C° 0,4 mm 3 m/S 715 mmHg 95%
    23:00 +2°C° 0,7 mm 2 m/S 715 mmHg 96%

    Morgen, 15 Dezember, Freitag

    Zeit Temperatur Niederschläge Wind Luftdruck Luftfeuchtigkeit
    00:00 +2°C° 0,7 mm 2 m/S 715 mmHg 96%
    01:00 +1°C° 0,7 mm 2 m/S 715 mmHg 96%
    02:00 +1°C° 0,1 mm 2 m/S 715 mmHg 95%
    03:00 0°C° 0,1 mm 3 m/S 715 mmHg 94%
    04:00 0°C° 0,1 mm 3 m/S 716 mmHg 94%
    05:00 -1°C° 0,1 mm 3 m/S 716 mmHg 94%
    06:00 -1°C° 0,1 mm 3 m/S 717 mmHg 93%
    07:00 -1°C° 0,1 mm 3 m/S 718 mmHg 93%
    08:00 -1°C° 0 mm 3 m/S 718 mmHg 93%
    09:00 -2°C° 0 mm 4 m/S 718 mmHg 92%
    10:00 -1°C° 0 mm 4 m/S 718 mmHg 91%
    11:00 -1°C° 0,2 mm 4 m/S 718 mmHg 91%
    12:00 -1°C° 0,2 mm 4 m/S 719 mmHg 90%
    13:00 0°C° 0,2 mm 4 m/S 719 mmHg 90%
    14:00 +1°C° 0,4 mm 3 m/S 719 mmHg 91%
    15:00 +1°C° 0,4 mm 3 m/S 719 mmHg 92%
    16:00 +1°C° 0,4 mm 3 m/S 719 mmHg 93%
    17:00 +1°C° 0,2 mm 3 m/S 720 mmHg 93%
    18:00 0°C° 0,2 mm 3 m/S 720 mmHg 94%
    19:00 +1°C° 0,2 mm 2 m/S 720 mmHg 95%
    20:00 +1°C° 0 mm 2 m/S 721 mmHg 95%
    21:00 +1°C° 0 mm 2 m/S 721 mmHg 95%
    22:00 -1°C° 0 mm 2 m/S 722 mmHg 95%
    23:00 -1°C° 0 mm 2 m/S 722 mmHg 95%

    übermorgen, 16 Dezember, Samstag

    Zeit Temperatur Niederschläge Wind Luftdruck Luftfeuchtigkeit
    00:00 -1°C° 0 mm 2 m/S 722 mmHg 95%
    01:00 -1°C° 0 mm 2 m/S 723 mmHg 95%
    02:00 -1°C° 0 mm 2 m/S 723 mmHg 95%
    03:00 -1°C° 0 mm 2 m/S 723 mmHg 95%
    04:00 -1°C° 0 mm 2 m/S 724 mmHg 95%
    05:00 -1°C° 0 mm 2 m/S 724 mmHg 95%
    06:00 -2°C° 0 mm 2 m/S 725 mmHg 95%
    07:00 -2°C° 0 mm 2 m/S 725 mmHg 95%
    08:00 -2°C° 0 mm 2 m/S 726 mmHg 94%
    09:00 -1°C° 0 mm 3 m/S 727 mmHg 93%
    10:00 -1°C° 0 mm 3 m/S 727 mmHg 92%
    11:00 0°C° 0 mm 3 m/S 728 mmHg 90%
    12:00 -1°C° 0 mm 4 m/S 728 mmHg 88%
    13:00 0°C° 0 mm 4 m/S 728 mmHg 86%
    14:00 -1°C° 0,1 mm 4 m/S 729 mmHg 86%
    15:00 -1°C° 0,1 mm 4 m/S 729 mmHg 87%
    16:00 0°C° 0,1 mm 3 m/S 729 mmHg 88%
    17:00 -1°C° 0 mm 3 m/S 730 mmHg 89%
    18:00 -1°C° 0 mm 3 m/S 730 mmHg 91%
    19:00 -2°C° 0 mm 3 m/S 731 mmHg 92%
    20:00 -2°C° 0 mm 3 m/S 731 mmHg 93%
    21:00 -2°C° 0 mm 3 m/S 732 mmHg 93%
    22:00 -2°C° 0 mm 3 m/S 732 mmHg 93%
    23:00 -2°C° 0,1 mm 3 m/S 733 mmHg 94%

    17 Dezember, Sonntag

    Zeit Temperatur Niederschläge Wind Luftdruck Luftfeuchtigkeit
    00:00 -2°C° 0,1 mm 3 m/S 733 mmHg 94%
    01:00 -2°C° 0,1 mm 3 m/S 733 mmHg 94%
    02:00 -2°C° 0,6 mm 3 m/S 733 mmHg 94%
    03:00 -1°C° 0,6 mm 3 m/S 734 mmHg 94%
    04:00 -1°C° 0,6 mm 3 m/S 734 mmHg 93%
    05:00 -1°C° 0,3 mm 3 m/S 734 mmHg 93%
    06:00 -1°C° 0,3 mm 3 m/S 735 mmHg 93%
    07:00 -1°C° 0,3 mm 2 m/S 735 mmHg 94%
    08:00 -1°C° 0 mm 2 m/S 736 mmHg 93%
    09:00 -1°C° 0 mm 2 m/S 736 mmHg 93%
    10:00 -1°C° 0 mm 2 m/S 737 mmHg 92%
    11:00 -1°C° 0 mm 2 m/S 737 mmHg 91%
    12:00 0°C° 0 mm 3 m/S 737 mmHg 90%
    13:00 +1°C° 0 mm 3 m/S 738 mmHg 88%
    14:00 0°C° 0 mm 3 m/S 738 mmHg 89%
    15:00 0°C° 0 mm 3 m/S 738 mmHg 90%
    16:00 -1°C° 0 mm 2 m/S 739 mmHg 91%
    17:00 -1°C° 0 mm 2 m/S 739 mmHg 92%
    18:00 -1°C° 0 mm 2 m/S 739 mmHg 92%
    19:00 -2°C° 0 mm 2 m/S 740 mmHg 93%
    20:00 -2°C° 0 mm 2 m/S 740 mmHg 93%
    21:00 -2°C° 0 mm 3 m/S 740 mmHg 94%
    22:00 -2°C° 0 mm 3 m/S 740 mmHg 94%
    23:00 -2°C° 0 mm 3 m/S 739 mmHg 93%

    18 Dezember, Montag

    Zeit Temperatur Niederschläge Wind Luftdruck Luftfeuchtigkeit
    00:00 -2°C° 0 mm 4 m/S 739 mmHg 92%
    01:00 -2°C° 0 mm 5 m/S 738 mmHg 91%
    02:00 -2°C° 0,7 mm 5 m/S 737 mmHg 91%
    03:00 -2°C° 0,7 mm 6 m/S 736 mmHg 92%
    04:00 -2°C° 0,7 mm 6 m/S 735 mmHg 92%
    05:00 -1°C° 1,7 mm 6 m/S 734 mmHg 93%
    06:00 +1°C° 1,7 mm 5 m/S 733 mmHg 95%
    07:00 +1°C° 1,7 mm 5 m/S 733 mmHg 96%
    08:00 +2°C° 0,3 mm 5 m/S 733 mmHg 96%
    09:00 +2°C° 0,3 mm 5 m/S 733 mmHg 96%
    10:00 +2°C° 0,3 mm 5 m/S 733 mmHg 96%
    11:00 +2°C° 0,1 mm 5 m/S 733 mmHg 95%
    12:00 +2°C° 0,1 mm 5 m/S 733 mmHg 94%
    13:00 +2°C° 0,1 mm 5 m/S 734 mmHg 93%
    14:00 +2°C° 0,1 mm 5 m/S 734 mmHg 92%
    15:00 +1°C° 0,1 mm 4 m/S 735 mmHg 91%
    16:00 +1°C° 0,1 mm 4 m/S 735 mmHg 89%
    17:00 0°C° 0 mm 4 m/S 736 mmHg 90%
    18:00 +1°C° 0 mm 3 m/S 737 mmHg 90%
    19:00 0°C° 0 mm 3 m/S 737 mmHg 91%
    20:00 0°C° 0 mm 3 m/S 738 mmHg 92%
    21:00 0°C° 0 mm 3 m/S 739 mmHg 92%
    22:00 0°C° 0 mm 3 m/S 739 mmHg 93%
    23:00 +1°C° 0 mm 2 m/S 740 mmHg 94%

    19 Dezember, Dienstag

    Zeit Temperatur Niederschläge Wind Luftdruck Luftfeuchtigkeit
    00:00 +1°C° 0 mm 2 m/S 740 mmHg 94%
    01:00 +1°C° 0 mm 2 m/S 740 mmHg 95%
    02:00 +1°C° 0 mm 2 m/S 741 mmHg 95%
    03:00 +1°C° 0 mm 2 m/S 741 mmHg 96%
    04:00 +2°C° 0 mm 1 m/S 742 mmHg 96%
    05:00 +2°C° 0 mm 1 m/S 742 mmHg 96%
    06:00 +2°C° 0 mm 1 m/S 743 mmHg 96%
    07:00 +2°C° 0 mm 1 m/S 743 mmHg 96%
    08:00 +2°C° 0 mm 1 m/S 743 mmHg 96%
    09:00 +2°C° 0 mm 1 m/S 744 mmHg 96%
    10:00 +2°C° 0 mm 1 m/S 745 mmHg 95%
    11:00 +3°C° 0 mm 1 m/S 745 mmHg 94%
    12:00 +3°C° 0 mm 1 m/S 745 mmHg 93%
    13:00 +3°C° 0 mm 0 m/S 745 mmHg 91%
    14:00 +2°C° 0 mm 0 m/S 745 mmHg 92%
    15:00 +2°C° 0 mm 0 m/S 745 mmHg 93%
    16:00 +1°C° 0 mm 0 m/S 745 mmHg 94%
    17:00 +1°C° 0 mm 0 m/S 746 mmHg 94%
    18:00 0°C° 0 mm 0 m/S 746 mmHg 94%
    19:00 0°C° 0 mm 0 m/S 746 mmHg 94%
    20:00 0°C° 0 mm 0 m/S 747 mmHg 94%
    21:00 -1°C° 0 mm 0 m/S 747 mmHg 94%
    22:00 -1°C° 0 mm 0 m/S 747 mmHg 94%
    23:00 -1°C° 0 mm 0 m/S 747 mmHg 94%
    Mehr zeigen